Theta_e
293 288 285 288 290 288 287 286 286 288 293 289 290 289 293 294 294 290 289 290 290 290 292 292 292 292 292 292 293 293 294 294 298 298 301 304 305 306 311 314 317 319 319 315
290 286 292 292 291 290 288 286 286 289 292 289 289 289 292 292 291 290 289 289 289 289 290 291 290 290 290 290 291 292 292 293 294 296 297 299 299 298 300 304 307 309 314 315
288 292 295 293 291 289 288 286 286 288 289 288 286 286 289 289 291 291 291 290 289 288 288 288 288 287 287 287 288 291 292 292 292 293 295 295 296 295 295 296 297 301 304 307
289 294 293 290 290 291 287 291 290 288 284 281 286 278 285 288 287 288 288 287 287 287 287 288 287 287 287 286 287 289 290 291 291 291 291 290 290 289 290 291 292 294 296 296
290 289 288 289 290 292 289 290 288 286 283 281 281 279 283 287 285 285 285 286 286 286 286 286 286 287 287 286 285 286 288 288 289 289 290 289 288 289 289 289 289 290 291 291
290 290 291 291 290 290 291 287 286 283 282 277 281 281 282 284 286 285 286 286 286 286 286 286 287 286 285 284 284 285 286 286 287 287 286 286 286 286 285 286 286 287 288 289
287 288 289 290 287 288 287 284 279 276 274 276 283 280 284 286 288 288 285 284 285 285 284 284 284 284 284 283 283 284 284 284 285 285 285 284 284 284 283 284 284 284 285 286
284 283 288 290 288 287 285 285 278 270 273 276 282 278 282 285 287 287 286 286 286 285 285 284 285 284 284 283 282 282 283 283 284 284 283 283 283 283 283 283 283 283 283 284
283 284 288 288 289 291 286 283 286 280 270 273 280 281 285 286 284 285 285 285 285 285 285 284 284 285 284 284 283 282 281 282 282 283 283 283 282 281 282 282 282 283 283 284
288 283 289 288 290 288 287 289 281 280 270 270 277 279 280 282 282 284 284 284 285 285 285 284 284 283 284 284 283 283 282 281 282 282 283 282 282 282 281 280 279 279 281 282
291 287 284 287 286 285 284 283 283 283 279 271 269 276 284 285 285 284 284 285 284 284 285 284 283 284 284 283 283 283 282 281 281 281 282 282 281 281 281 280 280 279 279 279
290 287 277 284 286 287 286 284 284 277 275 277 277 278 288 288 286 285 285 285 284 284 283 283 281 281 281 280 280 280 281 281 281 281 281 281 281 280 279 279 279 280 279 280
290 281 271 277 281 286 283 285 285 284 282 273 274 277 287 285 284 285 285 284 284 283 280 282 281 280 280 280 280 280 280 281 281 280 279 279 279 278 278 279 279 279 279 279
293 283 279 276 276 282 280 282 283 283 275 275 278 279 283 284 283 283 284 285 284 282 280 280 280 281 280 280 279 279 279 280 280 280 279 278 278 278 278 278 278 278 278 278
290 283 282 282 283 283 281 281 281 280 279 275 278 277 282 282 281 281 282 283 285 282 280 279 279 279 279 279 279 279 279 279 279 279 279 278 279 278 278 277 277 277 277 278
286 277 279 274 281 281 278 280 279 280 280 279 280 278 284 282 279 279 280 281 282 281 281 280 280 279 279 279 279 280 279 280 279 278 276 278 277 277 277 277 277 277 276 276
283 277 271 269 275 273 267 273 277 278 278 277 274 277 275 277 279 279 279 278 278 279 279 279 279 279 279 279 280 279 279 278 275 274 273 274 274 274 274 274 274 273 272 273
279 274 273 266 264 259 275 276 276 276 277 275 274 272 275 278 278 278 278 277 278 278 279 279 278 278 279 279 279 278 278 276 275 273 271 271 272 271 271 270 269 269 270 269
281 278 270 267 262 269 274 275 274 273 273 275 274 274 278 277 275 274 278 278 278 278 279 279 279 278 278 277 277 276 275 275 273 273 272 271 269 267 268 266 266 267 266 266
279 279 274 260 258 259 271 273 276 276 267 271 271 273 273 275 269 272 277 279 279 279 279 279 279 279 276 275 275 273 272 271 270 271 270 269 268 263 264 265 264 264 264 265
266 272 271 269 259 264 273 275 277 264 269 270 272 275 274 273 276 277 278 278 279 280 279 279 278 277 275 274 272 271 270 268 269 268 267 265 265 263 263 262 263 262 262 263
268 266 265 264 264 262 276 275 271 275 277 277 276 277 277 278 278 278 278 278 278 278 278 277 276 274 273 271 270 268 267 268 265 264 263 262 260 261 262 260 260 260 260 259
268 271 266 269 268 276 277 278 279 279 277 278 277 278 278 278 277 277 277 278 278 277 278 276 273 271 271 268 267 266 266 265 263 258 256 256 258 260 261 259 259 259 259 259
272 274 271 269 273 275 277 280 279 279 279 280 280 279 278 277 278 279 278 278 277 275 273 269 268 266 266 266 267 265 263 262 254 251 256 258 258 259 259 260 261 259 258 259
273 273 270 271 275 276 277 277 279 280 279 279 279 279 279 278 278 278 278 276 275 273 270 268 266 266 265 265 264 261 261 257 255 255 258 258 258 257 259 260 260 260 262 263
276 276 272 271 278 277 278 279 279 278 279 279 279 278 277 277 277 277 276 275 273 270 267 265 264 264 264 262 262 260 259 254 253 256 258 259 259 259 260 259 259 264 266 268
Wind_Speed
0 4 7 13 11 4 3 4 6 4 8 2 8 5 13 9 7 7 7 8 9 11 8 9 10 11 13 15 16 16 17 16 12 6 5 5 4 4 5 7 7 2 2 5
4 7 14 3 5 7 4 5 6 6 5 1 7 10 12 7 5 6 9 8 9 8 10 10 11 12 14 14 15 16 16 16 12 9 4 4 3 4 3 7 10 12 8 5
9 8 5 6 5 5 5 6 5 7 5 4 4 7 7 5 9 12 11 10 9 8 8 9 11 11 12 15 14 15 15 15 14 12 8 6 5 6 8 10 10 11 12 12
6 7 5 4 4 5 5 7 6 4 3 4 3 6 7 3 6 9 7 7 6 7 7 7 9 12 13 10 10 12 13 15 14 15 12 13 8 6 4 4 5 8 12 12
7 4 4 4 8 9 8 4 3 1 2 1 3 0 8 6 4 5 5 6 6 6 6 7 7 8 7 8 9 9 12 14 13 14 13 9 10 6 6 7 10 11 10 10
6 1 5 7 3 4 4 4 6 4 3 2 6 7 7 4 5 7 6 6 7 6 5 6 5 5 6 6 7 9 12 13 12 12 13 13 12 10 10 10 9 8 7 8
1 5 2 2 4 2 5 6 3 4 2 7 5 3 7 8 3 13 13 8 7 6 6 6 6 6 6 7 7 8 9 11 10 12 12 12 11 10 10 9 7 9 8 8
6 4 8 4 5 7 6 8 7 7 4 5 5 6 3 4 8 11 8 8 7 6 5 6 6 5 5 7 7 8 9 9 9 10 10 9 10 6 7 8 7 7 7 7
6 5 1 1 2 6 4 4 3 6 2 3 5 1 3 3 5 6 7 6 7 7 5 5 5 6 6 5 6 7 6 6 7 6 6 7 6 7 6 7 6 6 6 8
5 1 2 1 2 2 4 5 3 3 2 5 5 6 6 8 9 7 7 7 7 6 7 6 5 6 4 5 5 6 6 6 4 6 6 4 4 5 4 4 6 6 6 5
5 5 3 3 5 9 2 3 2 3 6 7 2 7 3 10 13 14 11 10 9 9 7 7 6 6 6 5 4 4 4 5 5 6 5 6 6 6 6 5 5 4 4 4
4 4 4 6 2 1 3 6 6 6 6 3 3 12 2 8 12 10 10 10 9 5 7 7 7 6 6 6 5 4 3 3 3 3 3 4 4 6 6 6 7 7 8 7
8 1 3 7 6 2 4 3 4 6 4 6 4 7 1 4 6 8 6 7 6 7 7 7 6 7 7 6 6 5 5 5 4 3 2 1 2 3 4 6 6 7 7 9
7 5 9 10 5 3 3 5 4 5 4 4 9 5 6 5 7 6 8 8 9 8 8 7 6 7 7 6 7 6 6 5 5 5 4 3 4 4 5 5 6 6 6 8
4 5 4 3 5 4 5 8 7 8 6 8 16 10 15 7 5 8 5 3 6 7 8 9 8 7 7 7 7 6 6 6 5 4 2 3 3 4 4 5 6 6 7 7
3 1 3 3 3 5 7 14 6 12 13 11 14 20 14 8 2 2 4 5 6 7 7 8 8 8 9 8 7 6 5 3 0 2 3 4 5 7 7 7 9 10 11 12
6 7 4 6 2 3 9 10 17 12 9 9 11 13 1 5 6 7 7 6 6 6 6 7 8 8 7 7 6 4 4 3 4 3 3 5 5 5 6 8 11 13 14 14
6 5 2 3 4 3 6 2 4 10 8 7 2 4 6 6 5 6 7 6 7 6 7 7 5 5 6 4 5 6 5 3 3 2 3 4 5 5 8 10 11 12 12 14
2 5 3 5 5 7 13 7 8 8 9 7 7 4 6 4 2 4 6 6 7 7 7 8 7 5 5 6 6 6 4 3 3 2 2 2 3 6 8 9 11 11 13 13
3 1 6 4 6 11 8 1 5 5 6 7 8 8 6 7 3 7 7 7 8 8 7 7 7 5 7 5 5 4 3 2 0 2 4 5 5 3 8 10 11 10 11 14
4 1 14 10 4 10 9 6 2 6 9 5 7 7 8 6 10 6 8 7 6 8 8 6 7 8 7 6 5 5 4 3 2 2 3 4 6 7 9 10 9 11 12 13
8 9 6 3 4 10 9 6 8 7 3 6 7 8 11 13 8 7 9 9 9 9 6 8 8 8 6 5 4 4 2 2 2 1 3 5 5 6 8 9 10 10 11 12
3 9 9 13 10 4 8 8 13 5 6 7 7 9 12 11 10 10 10 10 10 8 8 7 7 7 5 5 4 3 2 0 1 2 4 6 7 7 8 8 11 9 9 8
4 5 5 5 6 6 8 12 5 7 9 8 10 12 10 11 12 13 10 9 8 7 9 6 8 6 5 4 4 2 2 1 1 4 6 5 5 7 5 6 8 8 8 8
7 6 5 4 6 7 9 9 10 12 10 11 9 12 14 12 13 11 9 8 7 7 6 7 7 6 6 5 3 2 2 1 3 5 5 5 5 5 7 7 9 8 10 12
9 13 6 8 16 13 12 8 8 9 13 14 13 11 10 11 13 9 10 6 6 8 6 5 5 5 5 4 2 2 3 3 3 4 4 4 6 5 6 7 9 18 21 25
Wind_Direction
148 105 202 208 201 188 184 205 241 282 267 210 266 284 282 260 305 84 102 91 82 64 55 37 28 28 28 26 27 24 26 16 25 6 6 26 33 357 22 16 10 31 159 156
60 213 230 189 166 219 256 255 259 268 253 215 286 286 277 352 32 108 106 83 74 67 45 37 32 33 32 31 30 31 30 26 25 25 4 16 9 29 23 21 28 21 13 17
174 217 168 170 210 171 216 198 225 237 332 283 335 294 300 55 75 75 64 79 72 69 57 35 35 34 37 36 27 30 30 33 29 22 23 31 31 18 20 18 18 18 21 22
233 258 200 175 226 170 274 200 209 207 104 239 25 284 304 143 96 71 72 68 71 70 55 47 41 39 35 28 34 43 40 39 34 29 36 41 44 41 354 355 359 23 29 29
237 197 159 180 221 158 223 152 167 158 184 74 279 18 260 111 130 126 111 99 90 86 86 73 57 55 40 33 32 38 46 46 39 44 48 50 44 26 11 17 21 14 10 23
232 237 180 202 116 165 132 79 54 54 93 303 220 162 278 196 197 147 140 132 118 101 82 70 60 65 54 34 43 44 50 43 40 43 42 48 48 36 29 21 22 13 9 8
239 229 230 174 116 45 90 75 314 337 3 227 176 129 244 323 298 154 140 138 135 128 113 100 78 59 50 44 40 58 56 54 44 50 47 45 43 37 34 22 23 20 12 10
179 273 171 178 197 184 174 159 164 223 214 249 280 242 273 20 64 104 124 138 137 142 135 125 118 99 76 64 51 52 49 49 48 55 44 38 49 40 32 19 16 22 18 5
168 266 122 140 168 139 185 179 191 107 44 49 234 53 131 84 87 114 140 153 166 168 157 150 122 110 100 88 78 77 70 59 54 64 64 47 36 52 35 14 19 17 12 2
203 194 238 239 117 50 147 160 77 359 184 245 277 259 208 192 185 178 182 183 188 182 185 162 135 123 123 108 95 80 78 81 72 67 63 65 59 58 48 13 14 4 342 353
143 133 236 113 208 184 142 204 153 146 154 179 232 259 213 175 180 185 198 203 195 195 186 171 162 152 138 125 125 125 96 73 53 48 40 29 21 21 13 7 349 348 329 331
198 143 179 200 306 301 210 188 164 153 243 246 174 257 13 169 177 176 201 208 214 191 181 167 161 156 157 169 170 169 169 148 128 110 72 32 10 1 350 342 333 338 330 326
178 168 27 348 343 333 202 168 131 93 78 213 195 260 316 122 154 210 226 225 211 192 173 161 165 178 185 186 184 193 203 208 201 186 188 225 288 298 304 302 306 312 314 312
110 159 174 215 186 143 207 182 143 158 155 189 226 290 235 206 227 245 244 223 210 189 179 186 192 202 199 196 195 201 207 201 202 196 207 237 265 274 281 287 288 284 281 283
143 193 159 164 141 182 221 237 166 199 205 206 264 231 259 259 237 247 228 201 190 181 193 201 202 203 203 205 214 215 212 198 198 208 243 321 312 282 281 288 282 283 278 282
32 199 101 300 201 218 256 259 194 215 242 243 253 269 271 284 198 180 210 197 197 200 203 207 214 207 209 214 219 220 231 233 50 37 8 344 351 355 343 337 333 325 318 314
157 138 112 250 57 75 300 230 226 238 211 217 227 241 323 277 240 221 217 189 187 201 207 207 209 208 214 222 218 192 136 95 70 41 5 358 356 352 347 334 325 319 314 312
138 108 96 180 42 253 252 263 237 226 248 201 196 228 204 229 240 204 207 197 226 228 230 224 212 209 214 166 122 121 110 103 90 48 360 10 15 345 328 321 316 312 309 308
173 136 132 169 204 310 288 227 177 177 256 186 189 222 228 232 101 283 229 218 213 203 213 216 213 195 153 136 128 120 109 94 56 20 61 51 355 317 316 308 306 306 305 302
168 62 175 116 171 211 250 234 125 116 285 219 167 214 198 138 173 241 209 197 215 224 224 215 195 142 133 140 123 117 118 89 336 54 354 338 321 294 303 299 300 297 294 294
101 176 215 222 237 281 243 231 131 112 242 195 180 216 173 188 210 208 202 224 224 234 228 185 163 167 151 133 137 136 151 184 118 42 335 315 304 301 292 289 292 294 293 294
156 160 195 134 201 269 181 91 183 206 173 176 198 206 196 214 224 224 219 225 241 226 182 169 158 154 143 137 126 138 167 107 49 340 283 282 279 283 290 283 287 287 287 288
223 190 179 188 203 235 196 198 221 159 183 208 201 215 205 211 225 230 232 228 232 211 184 166 155 143 133 127 117 158 179 9 270 278 271 269 271 273 272 279 287 291 285 290
258 157 214 93 216 221 202 239 240 194 214 216 211 214 200 215 232 239 232 235 220 185 172 144 141 154 169 167 147 182 229 217 242 271 277 275 267 275 272 275 284 284 287 290
198 152 195 275 286 254 244 230 237 252 229 238 226 219 228 220 237 223 238 229 215 171 146 152 163 162 167 162 177 205 238 188 263 261 274 281 270 273 289 273 282 282 281 281
190 223 212 234 245 238 252 242 227 223 236 231 227 240 229 204 227 215 226 215 171 163 146 151 155 153 165 166 213 225 234 201 233 275 278 280 286 290 291 291 292 292 301 302